#datetime,building,power
2022-03-31T00:00:00,rvs,42.34
2022-03-31T00:01:00,rvs,35.84
2022-03-31T00:02:00,rvs,43.56
2022-03-31T00:03:00,rvs,50.99
2022-03-31T00:04:00,rvs,46.30
2022-03-31T00:05:00,rvs,58.10
2022-03-31T00:06:00,rvs,62.71
2022-03-31T00:07:00,rvs,54.43
2022-03-31T00:08:00,rvs,63.49
2022-03-31T00:09:00,rvs,49.16
2022-03-31T00:10:00,rvs,42.09
2022-03-31T00:11:00,rvs,51.96
2022-03-31T00:12:00,rvs,48.78
2022-03-31T00:13:00,rvs,42.53
2022-03-31T00:14:00,rvs,50.17
2022-03-31T00:15:00,rvs,37.65
2022-03-31T00:16:00,rvs,34.31
2022-03-31T00:17:00,rvs,59.58
2022-03-31T00:18:00,rvs,53.84
2022-03-31T00:19:00,rvs,60.33
2022-03-31T00:20:00,rvs,52.82
2022-03-31T00:21:00,rvs,44.72
2022-03-31T00:22:00,rvs,45.64
2022-03-31T00:23:00,rvs,49.25
2022-03-31T00:24:00,rvs,53.61
2022-03-31T00:25:00,rvs,61.92
2022-03-31T00:26:00,rvs,63.11
2022-03-31T00:27:00,rvs,41.32
2022-03-31T00:28:00,rvs,26.20
2022-03-31T00:29:00,rvs,27.34
2022-03-31T00:30:00,rvs,26.97
2022-03-31T00:31:00,rvs,29.81
2022-03-31T00:32:00,rvs,21.88
2022-03-31T00:33:00,rvs,23.88
2022-03-31T00:34:00,rvs,22.97
2022-03-31T00:35:00,rvs,22.51
2022-03-31T00:36:00,rvs,23.28
2022-03-31T00:37:00,rvs,22.01
2022-03-31T00:38:00,rvs,21.30
2022-03-31T00:39:00,rvs,20.67
2022-03-31T00:40:00,rvs,20.32
2022-03-31T00:41:00,rvs,20.66
2022-03-31T00:42:00,rvs,19.68
2022-03-31T00:43:00,rvs,18.20
2022-03-31T00:44:00,rvs,17.48
2022-03-31T00:45:00,rvs,11.63
2022-03-31T00:46:00,rvs,11.48
2022-03-31T00:47:00,rvs,11.44
2022-03-31T00:48:00,rvs,12.19
2022-03-31T00:49:00,rvs,12.00
2022-03-31T00:50:00,rvs,12.77
2022-03-31T00:51:00,rvs,12.50
2022-03-31T00:52:00,rvs,14.38
2022-03-31T00:53:00,rvs,14.16
2022-03-31T00:54:00,rvs,17.68
2022-03-31T00:55:00,rvs,18.71
2022-03-31T00:56:00,rvs,19.77
2022-03-31T00:57:00,rvs,19.83
2022-03-31T00:58:00,rvs,23.88
2022-03-31T00:59:00,rvs,28.52
2022-03-31T01:00:00,rvs,31.02
2022-03-31T01:01:00,rvs,32.24
2022-03-31T01:02:00,rvs,30.46
2022-03-31T01:03:00,rvs,27.02
2022-03-31T01:04:00,rvs,27.01
2022-03-31T01:05:00,rvs,27.79
2022-03-31T01:06:00,rvs,25.96
2022-03-31T01:07:00,rvs,24.51
2022-03-31T01:08:00,rvs,24.52
2022-03-31T01:09:00,rvs,24.97
2022-03-31T01:10:00,rvs,22.69
2022-03-31T01:11:00,rvs,21.02
2022-03-31T01:12:00,rvs,20.63
2022-03-31T01:13:00,rvs,20.65
2022-03-31T01:14:00,rvs,19.84
2022-03-31T01:15:00,rvs,20.04
2022-03-31T01:16:00,rvs,20.96
2022-03-31T01:17:00,rvs,21.96
2022-03-31T01:18:00,rvs,21.90
2022-03-31T01:19:00,rvs,22.81
2022-03-31T01:20:00,rvs,16.35
2022-03-31T01:21:00,rvs,15.13
2022-03-31T01:22:00,rvs,15.37
2022-03-31T01:23:00,rvs,15.25
2022-03-31T01:24:00,rvs,15.49
2022-03-31T01:25:00,rvs,13.77
2022-03-31T01:26:00,rvs,14.33
2022-03-31T01:27:00,rvs,15.45
2022-03-31T01:28:00,rvs,15.83
2022-03-31T01:29:00,rvs,18.61
2022-03-31T01:30:00,rvs,16.09
2022-03-31T01:31:00,rvs,25.84
2022-03-31T01:32:00,rvs,22.44
2022-03-31T01:33:00,rvs,23.66
2022-03-31T01:34:00,rvs,30.84
2022-03-31T01:35:00,rvs,26.77
2022-03-31T01:36:00,rvs,25.73
2022-03-31T01:37:00,rvs,22.17
2022-03-31T01:38:00,rvs,35.63
2022-03-31T01:39:00,rvs,35.63
2022-03-31T01:40:00,rvs,38.07
2022-03-31T01:41:00,rvs,40.03
2022-03-31T01:42:00,rvs,28.27
2022-03-31T01:43:00,rvs,31.49
2022-03-31T01:44:00,rvs,35.06
2022-03-31T01:45:00,rvs,36.59
2022-03-31T01:46:00,rvs,41.80
2022-03-31T01:47:00,rvs,45.96
2022-03-31T01:48:00,rvs,58.33
2022-03-31T01:49:00,rvs,62.11
2022-03-31T01:50:00,rvs,64.95
2022-03-31T01:51:00,rvs,64.82
2022-03-31T01:52:00,rvs,43.25
2022-03-31T01:53:00,rvs,39.23
2022-03-31T01:54:00,rvs,24.03
2022-03-31T01:55:00,rvs,24.65
2022-03-31T01:56:00,rvs,27.79
2022-03-31T01:57:00,rvs,35.34
2022-03-31T01:58:00,rvs,39.63
2022-03-31T01:59:00,rvs,39.78
2022-03-31T02:00:00,rvs,35.39
2022-03-31T02:01:00,rvs,36.26
2022-03-31T02:02:00,rvs,44.14
2022-03-31T02:03:00,rvs,40.41
2022-03-31T02:04:00,rvs,33.72
2022-03-31T02:05:00,rvs,40.39
2022-03-31T02:06:00,rvs,26.73
2022-03-31T02:07:00,rvs,31.36
2022-03-31T02:08:00,rvs,30.81
2022-03-31T02:09:00,rvs,33.51
2022-03-31T02:10:00,rvs,38.09
2022-03-31T02:11:00,rvs,41.59
2022-03-31T02:12:00,rvs,35.64
2022-03-31T02:13:00,rvs,42.09
2022-03-31T02:14:00,rvs,41.89
2022-03-31T02:15:00,rvs,37.73
2022-03-31T02:16:00,rvs,46.04
2022-03-31T02:17:00,rvs,50.78
2022-03-31T02:18:00,rvs,41.82
2022-03-31T02:19:00,rvs,42.03
2022-03-31T02:20:00,rvs,32.00
2022-03-31T02:21:00,rvs,14.56
2022-03-31T02:22:00,rvs,14.80
2022-03-31T02:23:00,rvs,14.72
2022-03-31T02:24:00,rvs,14.31
2022-03-31T02:25:00,rvs,14.74
2022-03-31T02:26:00,rvs,15.48
2022-03-31T02:27:00,rvs,14.77
2022-03-31T02:28:00,rvs,15.01
2022-03-31T02:29:00,rvs,15.35
2022-03-31T02:30:00,rvs,14.98
2022-03-31T02:31:00,rvs,15.41
2022-03-31T02:32:00,rvs,15.78
2022-03-31T02:33:00,rvs,14.89
2022-03-31T02:34:00,rvs,15.48
2022-03-31T02:35:00,rvs,15.19
2022-03-31T02:36:00,rvs,15.41
2022-03-31T02:37:00,rvs,15.44
2022-03-31T02:38:00,rvs,9.76
2022-03-31T02:39:00,rvs,9.78
2022-03-31T02:40:00,rvs,9.92
2022-03-31T02:41:00,rvs,9.71
2022-03-31T02:42:00,rvs,10.37
2022-03-31T02:43:00,rvs,10.55
2022-03-31T02:44:00,rvs,13.59
2022-03-31T02:45:00,rvs,14.73
2022-03-31T02:46:00,rvs,14.74
2022-03-31T02:47:00,rvs,17.27
2022-03-31T02:48:00,rvs,16.50
2022-03-31T02:49:00,rvs,15.20
2022-03-31T02:50:00,rvs,14.81
2022-03-31T02:51:00,rvs,15.02
2022-03-31T02:52:00,rvs,15.25
2022-03-31T02:53:00,rvs,19.09
2022-03-31T02:54:00,rvs,26.57
2022-03-31T02:55:00,rvs,28.50
2022-03-31T02:56:00,rvs,31.16
2022-03-31T02:57:00,rvs,28.07
2022-03-31T02:58:00,rvs,42.29
2022-03-31T02:59:00,rvs,39.30
2022-03-31T03:00:00,rvs,41.37
2022-03-31T03:01:00,rvs,52.28
2022-03-31T03:02:00,rvs,30.26
2022-03-31T03:03:00,rvs,39.11
2022-03-31T03:04:00,rvs,38.93
2022-03-31T03:05:00,rvs,34.50
2022-03-31T03:06:00,rvs,41.84
2022-03-31T03:07:00,rvs,40.61
2022-03-31T03:08:00,rvs,32.18
2022-03-31T03:09:00,rvs,45.19
2022-03-31T03:10:00,rvs,41.37
2022-03-31T03:11:00,rvs,39.46
2022-03-31T03:12:00,rvs,52.54
2022-03-31T03:13:00,rvs,41.94
2022-03-31T03:14:00,rvs,37.92
2022-03-31T03:15:00,rvs,34.02
2022-03-31T03:16:00,rvs,28.79
2022-03-31T03:17:00,rvs,36.15
2022-03-31T03:18:00,rvs,29.90
2022-03-31T03:19:00,rvs,38.33
2022-03-31T03:20:00,rvs,34.44
2022-03-31T03:21:00,rvs,31.44
2022-03-31T03:22:00,rvs,39.00
2022-03-31T03:23:00,rvs,33.03
2022-03-31T03:24:00,rvs,39.14
2022-03-31T03:25:00,rvs,49.28
2022-03-31T03:26:00,rvs,45.25
2022-03-31T03:27:00,rvs,53.94
2022-03-31T03:28:00,rvs,51.17
2022-03-31T03:29:00,rvs,40.30
2022-03-31T03:30:00,rvs,37.80
2022-03-31T03:31:00,rvs,37.93
2022-03-31T03:32:00,rvs,37.97
2022-03-31T03:33:00,rvs,40.27
2022-03-31T03:34:00,rvs,51.46
2022-03-31T03:35:00,rvs,53.30
2022-03-31T03:36:00,rvs,67.24
2022-03-31T03:37:00,rvs,71.56
2022-03-31T03:38:00,rvs,48.44
2022-03-31T03:39:00,rvs,52.59
2022-03-31T03:40:00,rvs,57.01
2022-03-31T03:41:00,rvs,58.81
2022-03-31T03:42:00,rvs,60.73
2022-03-31T03:43:00,rvs,58.15
2022-03-31T03:44:00,rvs,45.11
2022-03-31T03:45:00,rvs,31.20
2022-03-31T03:46:00,rvs,31.14
2022-03-31T03:47:00,rvs,33.15
2022-03-31T03:48:00,rvs,34.79
2022-03-31T03:49:00,rvs,34.55
2022-03-31T03:50:00,rvs,31.81
2022-03-31T03:51:00,rvs,31.73
2022-03-31T03:52:00,rvs,31.38
2022-03-31T03:53:00,rvs,14.87
2022-03-31T03:54:00,rvs,14.91
2022-03-31T03:55:00,rvs,15.45
2022-03-31T03:56:00,rvs,15.03
2022-03-31T03:57:00,rvs,9.88
2022-03-31T03:58:00,rvs,13.12
2022-03-31T03:59:00,rvs,14.29
2022-03-31T04:00:00,rvs,14.32
2022-03-31T04:01:00,rvs,15.80
2022-03-31T04:02:00,rvs,18.54
2022-03-31T04:03:00,rvs,17.65
2022-03-31T04:04:00,rvs,18.25
2022-03-31T04:05:00,rvs,19.29
2022-03-31T04:06:00,rvs,16.21
2022-03-31T04:07:00,rvs,17.87
2022-03-31T04:08:00,rvs,23.43
2022-03-31T04:09:00,rvs,25.19
2022-03-31T04:10:00,rvs,19.93
2022-03-31T04:11:00,rvs,21.18
2022-03-31T04:12:00,rvs,20.32
2022-03-31T04:13:00,rvs,18.97
2022-03-31T04:14:00,rvs,17.41
2022-03-31T04:15:00,rvs,16.11
2022-03-31T04:16:00,rvs,15.83
2022-03-31T04:17:00,rvs,15.77
2022-03-31T04:18:00,rvs,16.15
2022-03-31T04:19:00,rvs,15.49
2022-03-31T04:20:00,rvs,14.95
2022-03-31T04:21:00,rvs,14.64
2022-03-31T04:22:00,rvs,14.95
2022-03-31T04:23:00,rvs,15.18
2022-03-31T04:24:00,rvs,15.05
2022-03-31T04:25:00,rvs,9.85
2022-03-31T04:26:00,rvs,10.10
2022-03-31T04:27:00,rvs,10.32
2022-03-31T04:28:00,rvs,10.01
2022-03-31T04:29:00,rvs,9.98
2022-03-31T04:30:00,rvs,13.53
2022-03-31T04:31:00,rvs,14.26
2022-03-31T04:32:00,rvs,14.24
2022-03-31T04:33:00,rvs,17.61
2022-03-31T04:34:00,rvs,29.98
2022-03-31T04:35:00,rvs,27.78
2022-03-31T04:36:00,rvs,28.23
2022-03-31T04:37:00,rvs,18.34
2022-03-31T04:38:00,rvs,19.19
2022-03-31T04:39:00,rvs,21.22
2022-03-31T04:40:00,rvs,21.57
2022-03-31T04:41:00,rvs,19.37
2022-03-31T04:42:00,rvs,17.00
2022-03-31T04:43:00,rvs,17.04
2022-03-31T04:44:00,rvs,18.39
2022-03-31T04:45:00,rvs,17.30
2022-03-31T04:46:00,rvs,13.93
2022-03-31T04:47:00,rvs,20.37
2022-03-31T04:48:00,rvs,20.43
2022-03-31T04:49:00,rvs,20.45
2022-03-31T04:50:00,rvs,23.73
2022-03-31T04:51:00,rvs,16.51
2022-03-31T04:52:00,rvs,17.41
2022-03-31T04:53:00,rvs,18.55
2022-03-31T04:54:00,rvs,22.01
2022-03-31T04:55:00,rvs,22.32
2022-03-31T04:56:00,rvs,24.63
2022-03-31T04:57:00,rvs,25.55
2022-03-31T04:58:00,rvs,24.98
2022-03-31T04:59:00,rvs,27.61
2022-03-31T05:00:00,rvs,27.82
2022-03-31T05:01:00,rvs,39.32
2022-03-31T05:02:00,rvs,49.05
2022-03-31T05:03:00,rvs,49.86
2022-03-31T05:04:00,rvs,50.67
2022-03-31T05:05:00,rvs,26.50
2022-03-31T05:06:00,rvs,25.25
2022-03-31T05:07:00,rvs,28.15
2022-03-31T05:08:00,rvs,29.53
2022-03-31T05:09:00,rvs,29.73
2022-03-31T05:10:00,rvs,31.70
2022-03-31T05:11:00,rvs,30.98
2022-03-31T05:12:00,rvs,30.26
2022-03-31T05:13:00,rvs,30.99
2022-03-31T05:14:00,rvs,35.77
2022-03-31T05:15:00,rvs,38.46
2022-03-31T05:16:00,rvs,35.57
2022-03-31T05:17:00,rvs,36.79
2022-03-31T05:18:00,rvs,37.19
2022-03-31T05:19:00,rvs,33.31
2022-03-31T05:20:00,rvs,27.17
2022-03-31T05:21:00,rvs,27.68
2022-03-31T05:22:00,rvs,22.24
2022-03-31T05:23:00,rvs,21.00
2022-03-31T05:24:00,rvs,21.08
2022-03-31T05:25:00,rvs,28.10
2022-03-31T05:26:00,rvs,28.69
2022-03-31T05:27:00,rvs,29.30
2022-03-31T05:28:00,rvs,33.60
2022-03-31T05:29:00,rvs,35.14
2022-03-31T05:30:00,rvs,35.05
2022-03-31T05:31:00,rvs,40.17
2022-03-31T05:32:00,rvs,33.55
2022-03-31T05:33:00,rvs,29.96
2022-03-31T05:34:00,rvs,28.29
2022-03-31T05:35:00,rvs,21.44
2022-03-31T05:36:00,rvs,25.78
2022-03-31T05:37:00,rvs,27.39
2022-03-31T05:38:00,rvs,26.46
2022-03-31T05:39:00,rvs,27.63
2022-03-31T05:40:00,rvs,27.79
2022-03-31T05:41:00,rvs,24.87
2022-03-31T05:42:00,rvs,24.29
2022-03-31T05:43:00,rvs,27.48
2022-03-31T05:44:00,rvs,35.60
2022-03-31T05:45:00,rvs,34.88
2022-03-31T05:46:00,rvs,37.78
2022-03-31T05:47:00,rvs,44.25
2022-03-31T05:48:00,rvs,39.90
2022-03-31T05:49:00,rvs,33.28
2022-03-31T05:50:00,rvs,32.19
2022-03-31T05:51:00,rvs,23.26
2022-03-31T05:52:00,rvs,30.50
2022-03-31T05:53:00,rvs,25.81
2022-03-31T05:54:00,rvs,32.61
2022-03-31T05:55:00,rvs,22.45
2022-03-31T05:56:00,rvs,17.32
2022-03-31T05:57:00,rvs,27.83
2022-03-31T05:58:00,rvs,20.76
2022-03-31T05:59:00,rvs,26.77
2022-03-31T06:00:00,rvs,25.33
2022-03-31T06:01:00,rvs,22.29
2022-03-31T06:02:00,rvs,30.38
2022-03-31T06:03:00,rvs,23.46
2022-03-31T06:04:00,rvs,34.15
2022-03-31T06:05:00,rvs,35.77
2022-03-31T06:06:00,rvs,32.43
2022-03-31T06:07:00,rvs,43.97
2022-03-31T06:08:00,rvs,33.83
2022-03-31T06:09:00,rvs,39.38
2022-03-31T06:10:00,rvs,39.90
2022-03-31T06:11:00,rvs,42.30
2022-03-31T06:12:00,rvs,42.58
2022-03-31T06:13:00,rvs,39.33
2022-03-31T06:14:00,rvs,39.34
2022-03-31T06:15:00,rvs,39.17
2022-03-31T06:16:00,rvs,45.13
2022-03-31T06:17:00,rvs,49.09
2022-03-31T06:18:00,rvs,50.71
2022-03-31T06:19:00,rvs,43.45
2022-03-31T06:20:00,rvs,50.22
2022-03-31T06:21:00,rvs,48.57
2022-03-31T06:22:00,rvs,47.39
2022-03-31T06:23:00,rvs,56.05
2022-03-31T06:24:00,rvs,46.02
2022-03-31T06:25:00,rvs,45.57
2022-03-31T06:26:00,rvs,38.30
2022-03-31T06:27:00,rvs,45.04
2022-03-31T06:28:00,rvs,44.40
2022-03-31T06:29:00,rvs,36.64
2022-03-31T06:30:00,rvs,40.20
2022-03-31T06:31:00,rvs,32.53
2022-03-31T06:32:00,rvs,46.23
2022-03-31T06:33:00,rvs,38.14
2022-03-31T06:34:00,rvs,48.07
2022-03-31T06:35:00,rvs,41.70
2022-03-31T06:36:00,rvs,36.47
2022-03-31T06:37:00,rvs,37.66
2022-03-31T06:38:00,rvs,40.11
2022-03-31T06:39:00,rvs,42.48
2022-03-31T06:40:00,rvs,43.09
2022-03-31T06:41:00,rvs,59.41
2022-03-31T06:42:00,rvs,62.99
2022-03-31T06:43:00,rvs,72.74
2022-03-31T06:44:00,rvs,76.56
2022-03-31T06:45:00,rvs,49.41
2022-03-31T06:46:00,rvs,50.65
2022-03-31T06:47:00,rvs,52.00
2022-03-31T06:48:00,rvs,50.73
2022-03-31T06:49:00,rvs,51.00
2022-03-31T06:50:00,rvs,51.03
2022-03-31T06:51:00,rvs,53.88
2022-03-31T06:52:00,rvs,50.67
2022-03-31T06:53:00,rvs,61.77
2022-03-31T06:54:00,rvs,58.69
2022-03-31T06:55:00,rvs,27.08
2022-03-31T06:56:00,rvs,26.95
2022-03-31T06:57:00,rvs,16.78
2022-03-31T06:58:00,rvs,13.51
2022-03-31T06:59:00,rvs,14.11
2022-03-31T07:00:00,rvs,14.22
2022-03-31T07:01:00,rvs,16.29
2022-03-31T07:02:00,rvs,16.11
2022-03-31T07:03:00,rvs,23.24
2022-03-31T07:04:00,rvs,23.46
2022-03-31T07:05:00,rvs,23.97
2022-03-31T07:06:00,rvs,24.11
2022-03-31T07:07:00,rvs,24.13
2022-03-31T07:08:00,rvs,25.16
2022-03-31T07:09:00,rvs,29.56
2022-03-31T07:10:00,rvs,29.35
2022-03-31T07:11:00,rvs,25.87
2022-03-31T07:12:00,rvs,25.65
2022-03-31T07:13:00,rvs,28.62
2022-03-31T07:14:00,rvs,29.90
2022-03-31T07:15:00,rvs,27.76
2022-03-31T07:16:00,rvs,27.26
2022-03-31T07:17:00,rvs,29.71
2022-03-31T07:18:00,rvs,29.93
2022-03-31T07:19:00,rvs,26.47
2022-03-31T07:20:00,rvs,25.30
2022-03-31T07:21:00,rvs,22.51
2022-03-31T07:22:00,rvs,14.15
2022-03-31T07:23:00,rvs,13.61
2022-03-31T07:24:00,rvs,13.15
2022-03-31T07:25:00,rvs,14.12
2022-03-31T07:26:00,rvs,14.81
2022-03-31T07:27:00,rvs,9.30
2022-03-31T07:28:00,rvs,9.93
2022-03-31T07:29:00,rvs,9.78
2022-03-31T07:30:00,rvs,9.80
2022-03-31T07:31:00,rvs,23.36
2022-03-31T07:32:00,rvs,22.74
2022-03-31T07:33:00,rvs,22.50
2022-03-31T07:34:00,rvs,22.41
2022-03-31T07:35:00,rvs,10.00
2022-03-31T07:36:00,rvs,10.02
2022-03-31T07:37:00,rvs,10.17
2022-03-31T07:38:00,rvs,10.40
2022-03-31T07:39:00,rvs,12.78
2022-03-31T07:40:00,rvs,13.84
2022-03-31T07:41:00,rvs,13.79
2022-03-31T07:42:00,rvs,14.30
2022-03-31T07:43:00,rvs,16.83
2022-03-31T07:44:00,rvs,14.02
2022-03-31T07:45:00,rvs,19.13
2022-03-31T07:46:00,rvs,19.70
2022-03-31T07:47:00,rvs,20.14
2022-03-31T07:48:00,rvs,25.37
2022-03-31T07:49:00,rvs,27.14
2022-03-31T07:50:00,rvs,27.52
2022-03-31T07:51:00,rvs,26.75
2022-03-31T07:52:00,rvs,28.96
2022-03-31T07:53:00,rvs,28.26
2022-03-31T07:54:00,rvs,27.56
2022-03-31T07:55:00,rvs,33.80
2022-03-31T07:56:00,rvs,33.37
2022-03-31T07:57:00,rvs,29.60
2022-03-31T07:58:00,rvs,22.74
2022-03-31T07:59:00,rvs,21.59
2022-03-31T08:00:00,rvs,24.24
2022-03-31T08:01:00,rvs,24.31
2022-03-31T08:02:00,rvs,24.54
2022-03-31T08:03:00,rvs,28.35
2022-03-31T08:04:00,rvs,27.82
2022-03-31T08:05:00,rvs,28.15
2022-03-31T08:06:00,rvs,28.08
2022-03-31T08:07:00,rvs,23.85
2022-03-31T08:08:00,rvs,21.26
2022-03-31T08:09:00,rvs,25.88
2022-03-31T08:10:00,rvs,27.82
2022-03-31T08:11:00,rvs,25.90
2022-03-31T08:12:00,rvs,21.47
2022-03-31T08:13:00,rvs,24.49
2022-03-31T08:14:00,rvs,22.79
2022-03-31T08:15:00,rvs,22.91
2022-03-31T08:16:00,rvs,26.19
2022-03-31T08:17:00,rvs,46.52
2022-03-31T08:18:00,rvs,44.87
2022-03-31T08:19:00,rvs,45.94
2022-03-31T08:20:00,rvs,39.07
2022-03-31T08:21:00,rvs,18.90
2022-03-31T08:22:00,rvs,19.59
2022-03-31T08:23:00,rvs,22.41
2022-03-31T08:24:00,rvs,20.19
2022-03-31T08:25:00,rvs,20.40
2022-03-31T08:26:00,rvs,21.62
2022-03-31T08:27:00,rvs,26.43
2022-03-31T08:28:00,rvs,22.81
2022-03-31T08:29:00,rvs,27.75
2022-03-31T08:30:00,rvs,24.53
2022-03-31T08:31:00,rvs,23.66
2022-03-31T08:32:00,rvs,23.05
2022-03-31T08:33:00,rvs,21.45
2022-03-31T08:34:00,rvs,22.38
2022-03-31T08:35:00,rvs,12.58
2022-03-31T08:36:00,rvs,11.37
2022-03-31T08:37:00,rvs,11.33
2022-03-31T08:38:00,rvs,12.20
2022-03-31T08:39:00,rvs,11.90
2022-03-31T08:40:00,rvs,12.64
2022-03-31T08:41:00,rvs,13.04
2022-03-31T08:42:00,rvs,11.62
2022-03-31T08:43:00,rvs,11.22
2022-03-31T08:44:00,rvs,11.32
2022-03-31T08:45:00,rvs,11.12
2022-03-31T08:46:00,rvs,10.62
2022-03-31T08:47:00,rvs,10.49
2022-03-31T08:48:00,rvs,10.46
2022-03-31T08:49:00,rvs,18.45
2022-03-31T08:50:00,rvs,20.31
2022-03-31T08:51:00,rvs,21.11
2022-03-31T08:52:00,rvs,22.53
2022-03-31T08:53:00,rvs,17.63
2022-03-31T08:54:00,rvs,15.86
2022-03-31T08:55:00,rvs,16.18
2022-03-31T08:56:00,rvs,18.77
2022-03-31T08:57:00,rvs,19.24
2022-03-31T08:58:00,rvs,16.38
2022-03-31T08:59:00,rvs,16.67
2022-03-31T09:00:00,rvs,16.26
2022-03-31T09:01:00,rvs,17.97
2022-03-31T09:02:00,rvs,17.87
2022-03-31T09:03:00,rvs,18.03
2022-03-31T09:04:00,rvs,12.46
2022-03-31T09:05:00,rvs,12.31
2022-03-31T09:06:00,rvs,12.70
2022-03-31T09:07:00,rvs,12.57
2022-03-31T09:08:00,rvs,12.32
2022-03-31T09:09:00,rvs,12.05
2022-03-31T09:10:00,rvs,12.15
2022-03-31T09:11:00,rvs,12.04
2022-03-31T09:12:00,rvs,12.11
2022-03-31T09:13:00,rvs,13.45
2022-03-31T09:14:00,rvs,30.31
2022-03-31T09:15:00,rvs,13.51
2022-03-31T09:16:00,rvs,14.14
2022-03-31T09:17:00,rvs,13.72
2022-03-31T09:18:00,rvs,13.64
2022-03-31T09:19:00,rvs,12.22
2022-03-31T09:20:00,rvs,12.16
2022-03-31T09:21:00,rvs,11.03
2022-03-31T09:22:00,rvs,10.67
2022-03-31T09:23:00,rvs,10.70
2022-03-31T09:24:00,rvs,15.42
2022-03-31T09:25:00,rvs,14.73
2022-03-31T09:26:00,rvs,16.39
2022-03-31T09:27:00,rvs,16.56
2022-03-31T09:28:00,rvs,16.87
2022-03-31T09:29:00,rvs,17.11
2022-03-31T09:30:00,rvs,23.98
2022-03-31T09:31:00,rvs,27.53
2022-03-31T09:32:00,rvs,30.52
2022-03-31T09:33:00,rvs,34.74
2022-03-31T09:34:00,rvs,35.96
2022-03-31T09:35:00,rvs,38.00
2022-03-31T09:36:00,rvs,36.09
2022-03-31T09:37:00,rvs,28.62
2022-03-31T09:38:00,rvs,29.54
2022-03-31T09:39:00,rvs,28.25
2022-03-31T09:40:00,rvs,22.82
2022-03-31T09:41:00,rvs,22.77
2022-03-31T09:42:00,rvs,21.94
2022-03-31T09:43:00,rvs,22.16
2022-03-31T09:44:00,rvs,20.28
2022-03-31T09:45:00,rvs,28.21
2022-03-31T09:46:00,rvs,28.66
2022-03-31T09:47:00,rvs,25.22
2022-03-31T09:48:00,rvs,20.16
2022-03-31T09:49:00,rvs,20.50
2022-03-31T09:50:00,rvs,10.33
2022-03-31T09:51:00,rvs,10.38
2022-03-31T09:52:00,rvs,10.74
2022-03-31T09:53:00,rvs,10.08
2022-03-31T09:54:00,rvs,10.73
2022-03-31T09:55:00,rvs,10.51
2022-03-31T09:56:00,rvs,10.33
2022-03-31T09:57:00,rvs,13.37
2022-03-31T09:58:00,rvs,14.58
2022-03-31T09:59:00,rvs,15.46
2022-03-31T10:00:00,rvs,17.10
2022-03-31T10:01:00,rvs,17.47
2022-03-31T10:02:00,rvs,16.15
2022-03-31T10:03:00,rvs,15.14
2022-03-31T10:04:00,rvs,15.02
2022-03-31T10:05:00,rvs,15.04
2022-03-31T10:06:00,rvs,16.58
2022-03-31T10:07:00,rvs,16.53
2022-03-31T10:08:00,rvs,15.85
2022-03-31T10:09:00,rvs,16.64
2022-03-31T10:10:00,rvs,14.83
2022-03-31T10:11:00,rvs,10.01
2022-03-31T10:12:00,rvs,9.90
2022-03-31T10:13:00,rvs,9.82
2022-03-31T10:14:00,rvs,10.00
2022-03-31T10:15:00,rvs,9.95
2022-03-31T10:16:00,rvs,10.05
2022-03-31T10:17:00,rvs,10.18
2022-03-31T10:18:00,rvs,10.36
2022-03-31T10:19:00,rvs,10.13
2022-03-31T10:20:00,rvs,10.21
2022-03-31T10:21:00,rvs,9.93
2022-03-31T10:22:00,rvs,10.01
2022-03-31T10:23:00,rvs,9.92
2022-03-31T10:24:00,rvs,10.20
2022-03-31T10:25:00,rvs,10.13
2022-03-31T10:26:00,rvs,10.44
2022-03-31T10:27:00,rvs,10.29
2022-03-31T10:28:00,rvs,9.71
2022-03-31T10:29:00,rvs,11.24
2022-03-31T10:30:00,rvs,13.86
2022-03-31T10:31:00,rvs,15.36
2022-03-31T10:32:00,rvs,18.89
2022-03-31T10:33:00,rvs,19.69
2022-03-31T10:34:00,rvs,19.15
2022-03-31T10:35:00,rvs,23.17
2022-03-31T10:36:00,rvs,40.32
2022-03-31T10:37:00,rvs,41.44
2022-03-31T10:38:00,rvs,41.61
2022-03-31T10:39:00,rvs,41.65
2022-03-31T10:40:00,rvs,27.88
2022-03-31T10:41:00,rvs,15.77
2022-03-31T10:42:00,rvs,20.80
2022-03-31T10:43:00,rvs,19.18
2022-03-31T10:44:00,rvs,13.48
2022-03-31T10:45:00,rvs,10.23
2022-03-31T10:46:00,rvs,8.90
2022-03-31T10:47:00,rvs,9.27
2022-03-31T10:48:00,rvs,10.18
2022-03-31T10:49:00,rvs,10.27
2022-03-31T10:50:00,rvs,10.47
2022-03-31T10:51:00,rvs,9.75
2022-03-31T10:52:00,rvs,9.62
2022-03-31T10:53:00,rvs,13.02
2022-03-31T10:54:00,rvs,13.71
2022-03-31T10:55:00,rvs,14.00
2022-03-31T10:56:00,rvs,14.95
2022-03-31T10:57:00,rvs,14.99
2022-03-31T10:58:00,rvs,13.41
2022-03-31T10:59:00,rvs,14.23
2022-03-31T11:00:00,rvs,15.69
2022-03-31T11:01:00,rvs,17.99
2022-03-31T11:02:00,rvs,20.01
2022-03-31T11:03:00,rvs,22.93
2022-03-31T11:04:00,rvs,19.95
2022-03-31T11:05:00,rvs,22.65
2022-03-31T11:06:00,rvs,23.57
2022-03-31T11:07:00,rvs,21.60
2022-03-31T11:08:00,rvs,21.38
2022-03-31T11:09:00,rvs,21.57
2022-03-31T11:10:00,rvs,19.19
2022-03-31T11:11:00,rvs,15.56
2022-03-31T11:12:00,rvs,15.47
2022-03-31T11:13:00,rvs,14.86
2022-03-31T11:14:00,rvs,16.02
2022-03-31T11:15:00,rvs,18.71
2022-03-31T11:16:00,rvs,19.58
2022-03-31T11:17:00,rvs,19.72
2022-03-31T11:18:00,rvs,18.07
2022-03-31T11:19:00,rvs,17.86
2022-03-31T11:20:00,rvs,16.98
2022-03-31T11:21:00,rvs,13.89
2022-03-31T11:22:00,rvs,11.71
2022-03-31T11:23:00,rvs,10.73
2022-03-31T11:24:00,rvs,10.84
2022-03-31T11:25:00,rvs,9.66
2022-03-31T11:26:00,rvs,9.66
2022-03-31T11:27:00,rvs,9.86
2022-03-31T11:28:00,rvs,9.97
2022-03-31T11:29:00,rvs,9.90
2022-03-31T11:30:00,rvs,10.32
2022-03-31T11:31:00,rvs,10.17
2022-03-31T11:32:00,rvs,10.63
2022-03-31T11:33:00,rvs,10.44
2022-03-31T11:34:00,rvs,10.25
2022-03-31T11:35:00,rvs,10.38
2022-03-31T11:36:00,rvs,10.25
2022-03-31T11:37:00,rvs,10.35
2022-03-31T11:38:00,rvs,14.39
2022-03-31T11:39:00,rvs,14.42
2022-03-31T11:40:00,rvs,14.32
2022-03-31T11:41:00,rvs,9.85
2022-03-31T11:42:00,rvs,10.28
2022-03-31T11:43:00,rvs,10.20
2022-03-31T11:44:00,rvs,10.21
2022-03-31T11:45:00,rvs,10.17
2022-03-31T11:46:00,rvs,10.43
2022-03-31T11:47:00,rvs,10.30
2022-03-31T11:48:00,rvs,10.21
2022-03-31T11:49:00,rvs,10.24
2022-03-31T11:50:00,rvs,10.20
2022-03-31T11:51:00,rvs,10.45
2022-03-31T11:52:00,rvs,10.32
2022-03-31T11:53:00,rvs,10.33
2022-03-31T11:54:00,rvs,10.50
2022-03-31T11:55:00,rvs,10.34
2022-03-31T11:56:00,rvs,10.76
2022-03-31T11:57:00,rvs,10.71
2022-03-31T11:58:00,rvs,11.00
2022-03-31T11:59:00,rvs,10.41
2022-03-31T12:00:00,rvs,13.38
2022-03-31T12:01:00,rvs,14.73
2022-03-31T12:02:00,rvs,15.95
2022-03-31T12:03:00,rvs,17.29
2022-03-31T12:04:00,rvs,17.82
2022-03-31T12:05:00,rvs,16.17
2022-03-31T12:06:00,rvs,15.84
2022-03-31T12:07:00,rvs,14.94
2022-03-31T12:08:00,rvs,14.85
2022-03-31T12:09:00,rvs,14.48
2022-03-31T12:10:00,rvs,14.72
2022-03-31T12:11:00,rvs,14.87
2022-03-31T12:12:00,rvs,14.82
2022-03-31T12:13:00,rvs,9.98
2022-03-31T12:14:00,rvs,9.91
2022-03-31T12:15:00,rvs,13.78
2022-03-31T12:16:00,rvs,14.76
2022-03-31T12:17:00,rvs,14.19
2022-03-31T12:18:00,rvs,14.94
2022-03-31T12:19:00,rvs,18.53
2022-03-31T12:20:00,rvs,19.73
2022-03-31T12:21:00,rvs,16.10
2022-03-31T12:22:00,rvs,15.72
2022-03-31T12:23:00,rvs,15.78
2022-03-31T12:24:00,rvs,15.34
2022-03-31T12:25:00,rvs,14.54
2022-03-31T12:26:00,rvs,14.51
2022-03-31T12:27:00,rvs,14.60
2022-03-31T12:28:00,rvs,14.45
2022-03-31T12:29:00,rvs,14.67
2022-03-31T12:30:00,rvs,14.99
2022-03-31T12:31:00,rvs,15.23
2022-03-31T12:32:00,rvs,15.84
2022-03-31T12:33:00,rvs,20.33
2022-03-31T12:34:00,rvs,21.45
2022-03-31T12:35:00,rvs,20.57
2022-03-31T12:36:00,rvs,17.96
2022-03-31T12:37:00,rvs,32.89
2022-03-31T12:38:00,rvs,42.03
2022-03-31T12:39:00,rvs,44.35
2022-03-31T12:40:00,rvs,45.93
2022-03-31T12:41:00,rvs,47.09
2022-03-31T12:42:00,rvs,48.78
2022-03-31T12:43:00,rvs,49.75
2022-03-31T12:44:00,rvs,50.17
2022-03-31T12:45:00,rvs,50.56
2022-03-31T12:46:00,rvs,45.28
2022-03-31T12:47:00,rvs,9.99
2022-03-31T12:48:00,rvs,10.09
2022-03-31T12:49:00,rvs,10.42
2022-03-31T12:50:00,rvs,10.15
2022-03-31T12:51:00,rvs,10.09
2022-03-31T12:52:00,rvs,10.22
2022-03-31T12:53:00,rvs,10.00
2022-03-31T12:54:00,rvs,10.45
2022-03-31T12:55:00,rvs,10.04
2022-03-31T12:56:00,rvs,10.06
2022-03-31T12:57:00,rvs,9.89
2022-03-31T12:58:00,rvs,9.91
2022-03-31T12:59:00,rvs,10.05
2022-03-31T13:00:00,rvs,9.94
2022-03-31T13:01:00,rvs,10.09
2022-03-31T13:02:00,rvs,10.11
2022-03-31T13:03:00,rvs,10.21
2022-03-31T13:04:00,rvs,10.09
2022-03-31T13:05:00,rvs,10.05
2022-03-31T13:06:00,rvs,10.01
2022-03-31T13:07:00,rvs,9.99
2022-03-31T13:08:00,rvs,10.03
2022-03-31T13:09:00,rvs,10.13
2022-03-31T13:10:00,rvs,10.18
2022-03-31T13:11:00,rvs,10.33
2022-03-31T13:12:00,rvs,10.85
2022-03-31T13:13:00,rvs,10.82
2022-03-31T13:14:00,rvs,10.71
2022-03-31T13:15:00,rvs,10.88
2022-03-31T13:16:00,rvs,9.27
2022-03-31T13:17:00,rvs,9.05
2022-03-31T13:18:00,rvs,8.92
2022-03-31T13:19:00,rvs,8.76